QPF
0.02 0.03 0.02 0.01 0.00 0.00 0.00 0.00 0.00 0.00 0.00 0.00 0.01 0.00 0.00 0.01 0.00 0.00 0.00 0.00 0.00 0.00
0.01 0.01 0.01 0.01 0.01 0.00 0.00 0.00 0.03 0.04 0.01 0.00 0.00 0.00 0.00 0.00 0.01 0.01 0.00 0.00 0.00 0.00
0.00 0.00 0.04 0.06 0.03 0.01 0.01 0.01 0.01 0.02 0.03 0.00 0.00 0.01 0.02 0.00 0.00 0.01 0.00 0.00 0.01 0.01
0.01 0.00 0.04 0.06 0.04 0.03 0.02 0.02 0.02 0.04 0.04 0.02 0.01 0.01 0.03 0.00 0.02 0.03 0.03 0.01 0.01 0.01
0.01 0.01 0.02 0.01 0.02 0.02 0.01 0.02 0.01 0.05 0.05 0.03 0.01 0.02 0.03 0.01 0.01 0.05 0.04 0.02 0.01 0.00
0.00 0.00 0.00 0.02 0.02 0.04 0.03 0.04 0.01 0.01 0.04 0.03 0.04 0.06 0.05 0.03 0.01 0.05 0.03 0.02 0.02 0.01
0.00 0.00 0.00 0.00 0.00 0.06 0.06 0.06 0.09 0.05 0.03 0.02 0.03 0.05 0.03 0.09 0.06 0.09 0.04 0.04 0.02 0.00
0.00 0.00 0.00 0.02 0.03 0.03 0.09 0.10 0.12 0.14 0.12 0.12 0.14 0.06 0.08 0.13 0.10 0.10 0.12 0.06 0.05 0.02
0.06 0.05 0.04 0.04 0.05 0.05 0.06 0.07 0.06 0.05 0.06 0.06 0.02 0.17 0.04 0.06 0.08 0.11 0.12 0.10 0.09 0.15
0.05 0.05 0.07 0.08 0.13 0.09 0.09 0.13 0.06 0.05 0.09 0.05 0.03 0.04 0.02 0.05 0.02 0.03 0.04 0.05 0.04 0.04
0.03 0.06 0.06 0.10 0.12 0.10 0.11 0.08 0.12 0.20 0.16 0.12 0.12 0.05 0.02 0.03 0.00 0.02 0.03 0.04 0.03 0.02
0.09 0.09 0.09 0.09 0.08 0.09 0.07 0.04 0.02 0.08 0.13 0.15 0.17 0.11 0.06 0.12 0.01 0.02 0.04 0.04 0.02 0.02
0.09 0.16 0.11 0.08 0.05 0.06 0.10 0.09 0.09 0.10 0.10 0.08 0.09 0.06 0.08 0.05 0.01 0.01 0.03 0.03 0.02 0.03
0.11 0.12 0.08 0.03 0.01 0.01 0.02 0.01 0.02 0.02 0.03 0.05 0.03 0.02 0.02 0.00 0.00 0.00 0.03 0.03 0.01 0.00
MSLP
1015.91 1016.42 1016.87 1016.55 1016.42 1016.75 1016.98 1016.82 1016.31 1016.59 1016.62 1016.99 1017.27 1017.41 1017.60 1018.18 1018.43 1018.39 1018.43 1018.64 1018.71 1018.64
1015.62 1015.89 1016.10 1016.46 1016.60 1016.78 1016.87 1016.89 1017.09 1016.96 1017.03 1016.85 1017.14 1017.46 1017.67 1018.22 1018.31 1018.39 1018.47 1018.62 1018.48 1018.11
1015.35 1015.62 1015.98 1016.27 1016.57 1016.45 1016.80 1016.72 1016.92 1017.19 1017.33 1016.94 1016.89 1016.98 1017.46 1017.72 1017.90 1018.07 1018.09 1018.03 1017.95 1018.00
1014.88 1015.37 1015.78 1016.20 1016.19 1016.47 1016.61 1016.85 1017.04 1017.21 1017.42 1017.53 1017.36 1017.23 1017.37 1017.78 1017.79 1017.88 1017.89 1017.91 1017.84 1017.96
1014.00 1014.65 1015.29 1015.41 1015.76 1016.06 1016.42 1016.89 1016.97 1017.52 1017.74 1017.65 1017.30 1017.30 1017.45 1017.71 1017.64 1017.76 1017.87 1017.81 1017.73 1017.75
1013.30 1013.68 1014.14 1014.90 1015.47 1015.69 1016.06 1016.33 1016.51 1016.60 1016.83 1016.98 1017.06 1017.16 1017.21 1017.37 1017.52 1017.60 1017.60 1017.60 1017.56 1017.63
1012.54 1013.05 1013.37 1013.98 1014.50 1014.95 1015.45 1015.70 1016.12 1016.26 1016.38 1016.68 1016.88 1016.99 1017.10 1017.24 1017.42 1017.54 1017.56 1017.54 1017.41 1017.10
1011.77 1012.32 1012.86 1013.28 1013.80 1014.31 1014.88 1015.53 1015.86 1016.08 1016.39 1016.49 1016.78 1016.81 1016.77 1016.98 1017.07 1017.26 1017.34 1017.27 1017.24 1017.20
1011.59 1011.93 1012.56 1013.16 1013.62 1014.19 1014.63 1015.10 1015.56 1015.88 1016.05 1016.29 1016.36 1016.52 1016.46 1016.49 1016.81 1016.96 1017.07 1017.16 1017.05 1017.27
1011.94 1012.29 1012.69 1013.21 1013.70 1014.12 1014.53 1014.82 1015.15 1015.45 1015.73 1015.95 1016.07 1016.40 1016.45 1016.53 1016.64 1016.60 1016.61 1016.83 1017.02 1016.95
1012.00 1012.56 1012.83 1013.28 1013.66 1013.98 1014.23 1014.53 1014.88 1015.18 1015.36 1015.65 1015.97 1016.36 1016.60 1016.56 1016.60 1016.67 1016.61 1016.62 1016.70 1016.80
1012.42 1012.72 1013.21 1013.60 1013.81 1013.98 1014.38 1014.49 1014.53 1014.62 1015.06 1015.38 1016.18 1016.67 1017.04 1017.02 1016.49 1016.45 1016.72 1016.74 1016.95 1017.07
1012.87 1013.10 1013.69 1014.08 1014.29 1014.39 1014.65 1014.86 1014.91 1014.97 1015.40 1015.94 1016.57 1016.74 1017.00 1016.66 1016.80 1016.09 1016.58 1017.01 1017.69 1017.65
1013.41 1013.80 1014.09 1015.09 1015.16 1015.32 1015.58 1015.75 1016.21 1016.29 1016.52 1016.88 1017.37 1017.49 1017.34 1017.09 1016.88 1016.44 1016.70 1017.54 1018.42 1018.66
Thickness
5781 5778 5775 5782 5786 5783 5783 5786 5790 5790 5791 5791 5790 5790 5789 5786 5786 5790 5791 5788 5789 5789
5783 5782 5781 5780 5782 5781 5784 5786 5785 5786 5787 5789 5788 5788 5786 5784 5786 5789 5789 5789 5791 5794
5784 5783 5781 5783 5781 5785 5784 5785 5785 5785 5785 5789 5790 5791 5790 5789 5790 5789 5790 5792 5793 5791
5784 5783 5781 5779 5784 5783 5785 5783 5782 5781 5781 5782 5786 5790 5789 5787 5788 5787 5788 5790 5791 5789
5789 5785 5779 5783 5784 5785 5783 5780 5783 5779 5776 5780 5785 5787 5786 5785 5787 5785 5785 5786 5787 5788
5789 5789 5787 5782 5780 5782 5780 5782 5785 5784 5783 5783 5784 5785 5786 5786 5785 5785 5785 5786 5786 5786
5792 5791 5791 5790 5788 5785 5784 5784 5783 5783 5784 5783 5783 5783 5784 5784 5783 5782 5783 5784 5785 5788
5793 5795 5793 5792 5790 5789 5785 5782 5782 5781 5780 5781 5780 5782 5783 5781 5781 5780 5780 5782 5783 5785
5789 5791 5789 5787 5786 5784 5783 5781 5779 5777 5777 5776 5779 5779 5780 5782 5779 5778 5777 5776 5779 5779
5781 5781 5781 5780 5779 5777 5776 5777 5776 5776 5775 5774 5776 5775 5775 5775 5776 5775 5776 5775 5774 5775
5773 5772 5772 5771 5771 5770 5772 5771 5770 5770 5772 5771 5771 5767 5767 5767 5769 5769 5769 5770 5771 5772
5760 5762 5762 5760 5761 5764 5762 5763 5766 5768 5765 5765 5762 5757 5756 5754 5763 5763 5760 5761 5760 5761
5748 5749 5748 5748 5748 5752 5752 5751 5753 5755 5756 5752 5749 5748 5746 5752 5751 5757 5753 5751 5744 5747
5734 5734 5734 5728 5731 5733 5733 5735 5731 5734 5735 5735 5733 5733 5734 5736 5742 5745 5743 5736 5731 5730